| time (UTC) | temp F | wind direction | speed knots | gust knots | rain 1hr in | rain 24hr in | rain mn in | humidity % | barometer mb |
| 20260504081525 | 58 | 11 | 0.0 | 1.7 | 0.00 | 0.00 | 0.00 | 93 | 1017.0 |
| 20260504050020 | 62 | 11 | 0.0 | 1.7 | 0.00 | 0.00 | 0.00 | 86 | 1017.9 |
| 20260504044534 | 63 | 11 | 0.0 | 1.7 | 0.00 | 0.00 | 0.00 | 84 | 1018.1 |
| 20260504043010 | 63 | 89 | 0.0 | 1.7 | 0.00 | 0.00 | 0.00 | 84 | 1018.4 |
| 20260504041515 | 64 | 89 | 0.9 | 0.9 | 0.00 | 0.00 | 0.00 | 82 | 1018.3 |
| 20260504040021 | 65 | 89 | 0.0 | 1.7 | 0.00 | 0.00 | 0.00 | 79 | 1018.2 |
| 20260504034526 | 65 | 89 | 0.0 | 1.7 | 0.00 | 0.00 | 0.00 | 77 | 1018.4 |
| 20260504033010 | 66 | 89 | 0.0 | 1.7 | 0.00 | 0.00 | 0.00 | 75 | 1018.2 |
| 20260504031518 | 67 | 89 | 0.9 | 3.5 | 0.00 | 0.00 | 0.00 | 73 | 1018.2 |
| 20260504030024 | 67 | 96 | 1.7 | 5.2 | 0.00 | 0.00 | 0.00 | 73 | 1018.1 |
| 20260504024506 | 67 | 86 | 1.7 | 4.3 | 0.00 | 0.00 | 0.00 | 73 | 1018.0 |
| 20260504023012 | 67 | 90 | 1.7 | 3.5 | 0.00 | 0.00 | 0.00 | 73 | 1017.9 |
| 20260504021520 | 68 | 84 | 0.0 | 3.5 | 0.00 | 0.00 | 0.00 | 71 | 1018.0 |
| 20260504020027 | 69 | 85 | 1.7 | 7.0 | 0.00 | 0.00 | 0.00 | 69 | 1017.8 |
| 20260504014506 | 69 | 101 | 3.5 | 7.8 | 0.00 | 0.00 | 0.00 | 68 | 1017.6 |
| 20260504013040 | 69 | 109 | 4.3 | 8.7 | 0.00 | 0.00 | 0.00 | 67 | 1017.3 |
| 20260504011520 | 70 | 115 | 2.6 | 6.1 | 0.00 | 0.00 | 0.00 | 65 | 1017.0 |
| 20260504010026 | 70 | 104 | 2.6 | 7.0 | 0.00 | 0.00 | 0.00 | 64 | 1016.7 |
| 20260504004531 | 70 | 71 | 0.9 | 3.5 | 0.00 | 0.00 | 0.00 | 64 | 1016.7 |
| 20260504003032 | 71 | 59 | 0.9 | 3.5 | 0.00 | 0.00 | 0.00 | 63 | 1016.5 |
| 20260504001521 | 72 | 71 | 0.9 | 2.6 | 0.00 | 0.00 | 0.00 | 63 | 1016.6 |
| 20260504000027 | 73 | 27 | 0.9 | 3.5 | 0.00 | 0.00 | 0.00 | 61 | 1016.5 |
| 20260503234527 | 74 | 76 | 0.0 | 3.5 | 0.00 | 0.00 | 0.00 | 59 | 1016.4 |
| 20260503233034 | 75 | 92 | 0.9 | 7.0 | 0.00 | 0.00 | 0.00 | 56 | 1016.3 |
| 20260503231524 | 76 | 143 | 2.6 | 7.8 | 0.00 | 0.00 | 0.00 | 54 | 1016.4 |
| 20260503230029 | 77 | 89 | 3.5 | 6.1 | 0.00 | 0.00 | 0.00 | 53 | 1016.2 |
| 20260503224531 | 78 | 146 | 2.6 | 8.7 | 0.00 | 0.00 | 0.00 | 53 | 1016.2 |
| 20260503223021 | 78 | 85 | 4.3 | 8.7 | 0.00 | 0.00 | 0.00 | 51 | 1016.1 |
| 20260503221527 | 78 | 128 | 2.6 | 8.7 | 0.00 | 0.00 | 0.00 | 52 | 1016.3 |
| 20260503220011 | 78 | 117 | 3.5 | 7.8 | 0.00 | 0.00 | 0.00 | 52 | 1016.3 |
| 20260503214519 | 78 | 24 | 3.5 | 6.1 | 0.00 | 0.00 | 0.00 | 53 | 1016.2 |
| 20260503213023 | 77 | 115 | 0.0 | 7.0 | 0.00 | 0.00 | 0.00 | 55 | 1016.2 |
| 20260503211506 | 79 | 114 | 3.5 | 9.6 | 0.00 | 0.00 | 0.00 | 50 | 1016.0 |
| 20260503210016 | 79 | 53 | 0.9 | 4.3 | 0.00 | 0.00 | 0.00 | 53 | 1016.1 |
| 20260503204522 | 78 | 57 | 1.7 | 11.3 | 0.00 | 0.00 | 0.00 | 53 | 1016.4 |
| 20260503203026 | 79 | 9 | 0.9 | 8.7 | 0.00 | 0.00 | 0.00 | 52 | 1016.5 |
| 20260503201510 | 78 | 189 | 0.9 | 8.7 | 0.00 | 0.00 | 0.00 | 51 | 1016.7 |
| 20260503200019 | 77 | 142 | 2.6 | 5.2 | 0.00 | 0.00 | 0.00 | 55 | 1016.7 |
| 20260503194524 | 78 | 109 | 2.6 | 7.0 | 0.00 | 0.03 | 0.00 | 53 | 1017.0 |
| 20260503193028 | 76 | 201 | 0.0 | 8.7 | 0.00 | 0.08 | 0.00 | 57 | 1017.2 |
| 20260503191512 | 76 | 163 | 0.0 | 7.8 | 0.00 | 0.12 | 0.00 | 56 | 1017.5 |
| 20260503190038 | 78 | 123 | 1.7 | 7.8 | 0.00 | 0.15 | 0.00 | 54 | 1017.7 |
| 20260503184527 | 77 | 281 | 2.6 | 7.8 | 0.00 | 0.18 | 0.00 | 57 | 1018.0 |
| 20260503183026 | 76 | 115 | 2.6 | 7.0 | 0.00 | 0.23 | 0.00 | 58 | 1018.3 |
| 20260503181517 | 76 | 113 | 0.9 | 7.0 | 0.00 | 0.46 | 0.00 | 59 | 1018.3 |
| 20260503180034 | 76 | 86 | 5.2 | 9.6 | 0.00 | 0.55 | 0.00 | 61 | 1018.4 |
| 20260503174527 | 75 | 78 | 1.7 | 8.7 | 0.00 | 0.55 | 0.00 | 62 | 1018.5 |
| 20260503173028 | 75 | 111 | 4.3 | 9.6 | 0.00 | 0.55 | 0.00 | 62 | 1018.7 |
| 20260503171532 | 74 | 83 | 3.5 | 11.3 | 0.00 | 0.55 | 0.00 | 63 | 1018.9 |